Location: Las Navas
(40.6024°N, 4.3345°W)
Time: 09:32:03
(UTC+00:00)

Meteor 2-17 Rocket - Pass Details

Date: 03 April 2020
Orbit: 935 x 956 km, 82.5° (Epoch: 29 May)

Event Time Altitude Azimuth Distance (km) Brightness Sun altitude
Rises 20:50:24 0° 351° (N) 3,638 8.1 -23.3°
Reaches altitude 10° 20:52:54 10° 351° (N) 2,690 7.3 -23.7°
Maximum altitude 20:59:04 86° 265° (W) 963 4.4 -24.7°
Enters shadow 21:01:23 41° 177° (S) 1,350 4.9 -25.0°
